Location: Arrien
(42.8963°N, 1.0429°E)
Time: 14:39:09
(UTC+00:00)

BlueWalker 3 - Pass Details

Date: 26 February 2026
Orbit: 451 x 457 km, 53.2° (Epoch: 14 March)

Event Time Altitude Azimuth Distance (km) Brightness Sun altitude
Exits shadow 05:39:56 15° 246° (WSW) 1,337 3.5 -11.2°
Maximum altitude 05:42:51 63° 326° (NNW) 514 1.8 -10.6°
Drops below altitude 10° 05:46:25 10° 49° (NE) 1,599 5.2 -10.0°
Sets 05:48:35 0° 52° (NE) 2,474 6.3 -9.6°
